This is the latest recevied weather packets stored in our database for station/object OE6JUE. If no packets are shown the sender has not sent any weather packets the latest 10 day(s).
| Time | Temp. | Humidity | Pressure | Rain* | Wind** | Luminosity | Snow |
|---|---|---|---|---|---|---|---|
| 1777617412 | 15° C | 31% | 1029 hPa | 0 mm | - | - | - |
| 1777617112 | 14.44° C | 31% | 1029 hPa | 0 mm | - | - | - |
| 1777616812 | 14.44° C | 33% | 1029 hPa | 0 mm | - | - | - |
| 1777616512 | 13.89° C | 33% | 1028.9 hPa | 0 mm | - | - | - |
| 1777616212 | 13.33° C | 33% | 1028.8 hPa | 0 mm | - | - | - |
| 1777615912 | 12.22° C | 37% | 1028.9 hPa | 0 mm | - | - | - |
| 1777615612 | 12.22° C | 37% | 1028.8 hPa | 0 mm | - | - | - |
| 1777615312 | 12.22° C | 37% | 1028.9 hPa | - | - | - | - |
| 1777615011 | 11.67° C | 36% | 1028.7 hPa | 0 mm | - | - | - |
| 1777614712 | 11.11° C | 37% | 1028.7 hPa | 0 mm | - | - | - |
| 1777614412 | 10.56° C | 37% | 1028.7 hPa | 0 mm | - | - | - |
| 1777614112 | 10.56° C | 38% | 1028.6 hPa | 0 mm | - | - | - |
| 1777613811 | 10° C | 37% | 1028.7 hPa | 0 mm | - | - | - |
| 1777613511 | 10.56° C | 37% | 1028.5 hPa | 0 mm | - | - | - |
| 1777613213 | 10° C | 37% | 1028.6 hPa | 0 mm | - | - | - |
| 1777612912 | 9.44° C | 37% | 1028.5 hPa | 0 mm | - | - | - |
| 1777612612 | 10° C | 39% | 1028.6 hPa | 0 mm | - | - | - |
| 1777612311 | 9.44° C | 41% | 1028.6 hPa | 0 mm | - | - | - |
| 1777612011 | 9.44° C | 41% | 1028.7 hPa | 0 mm | - | - | - |
| 1777611711 | 8.33° C | 41% | 1028.6 hPa | - | - | - | - |
| 1777611413 | 7.78° C | 41% | 1028.6 hPa | 0 mm | - | - | - |
| 1777611112 | 7.22° C | 50% | 1028.7 hPa | 0 mm | - | - | - |
| 1777610812 | 7.22° C | 51% | 1028.6 hPa | 0 mm | - | - | - |
| 1777610511 | 6.67° C | 51% | 1028.5 hPa | 0 mm | - | - | - |
| 1777610211 | 6.11° C | 52% | 1028.6 hPa | 0 mm | - | - | - |
* Rain latest hour (hover to see other rain measurements)
** Current wind speed in m/s (hover to see current wind gust speed)